Simultaneous Nadir Overpasses (SNOs) Predictions

Prediction of SNOs between NOAA-19 and NPP Satellite Orbit:

Table of predicted SNOs for the next 14.0 days since TLE Epoch: 6/9/2013
Index Date (NOAA-19) Time (NOAA-19) Lat,Lon (NOAA-19) SZA (NOAA-19 ) Date (NPP) Time (NPP) Lat,Lon (NPP) SZA (NPP ) Distance(km) Time Diff (sec)
1 06/14/2013 07:13:31 -80.92,-160.95 118.59 06/14/2013 07:14:29 -80.92,-160.82 118.64 2.22 58
2 06/14/2013 08:04:31 80.90, 6.82 61.33 06/14/2013 08:05:13 80.90, 6.85 61.30 0.56 42
3 06/14/2013 08:55:34 -80.90, 174.09 118.68 06/14/2013 08:55:58 -80.90, 174.12 118.70 0.53 24
4 06/14/2013 09:46:34 80.88, -18.14 61.24 06/14/2013 09:46:42 80.88, -18.20 61.25 1.15 8
5 06/14/2013 10:37:36 -80.87, 149.49 118.82 06/14/2013 10:37:26 -80.87, 149.43 118.81 1.19 10
6 06/14/2013 11:28:36 80.85, -42.75 61.10 06/14/2013 11:28:10 80.85, -42.90 61.14 2.82 26
7 06/14/2013 12:19:37 -80.81, 125.24 119.02 06/14/2013 12:18:53 -80.82, 125.08 118.97 2.86 44




NCC Satellite Simultaneous Nadir Overpasses (SNOs) Prediction Service
